Weather History for Sidney, NE

Change the Weather History Date:

Monday, May 5, 2014

  Actual Average Record
Temperature  
Mean Temperature 60 °F 54 °F  
Max Temperature 82 °F 69 °F 92 °F (2004)
Min Temperature 38 °F 40 °F 22 °F (2013)
Degree Days  
Heating Degree Days 5 11  
Month to date heating degree days 50 58  
Since 1 July heating degree days 6358 5970  
Cooling Degree Days 0 0  
Month to date cooling degree days 0 0  
Year to date cooling degree days 0 1  
Growing Degree Days 9 (Base 50)    
Moisture  
Dew Point 41 °F    
Average Humidity 54    
Maximum Humidity 92    
Minimum Humidity 16    
Precipitation  
Precipitation 0.00 in 0.11 in 1.30 in (1968)
Month to date precipitation T 0.52  
Year to date precipitation 2.00 4.19  
Sea Level Pressure  
Sea Level Pressure 29.73 in    
Wind  
Wind Speed 12 mph (SSE)    
Max Wind Speed 24 mph    
Max Gust Speed 30 mph    
Visibility 10 miles    
Events      
T = Trace of Precipitation, MM = Missing Value Source: NWS Daily Summary

Daily Weather History Graph

Daily Weather History Graph

Search for Another Location

Airport:

Trip Planner

Search our weather history database for the weather conditions in past years. The results will help you decide how hot, cold, wet, or windy it might be!

Date:

Astronomy

May. 05, 2014 Rise Set
Actual Time 5:44 AM MDT 7:53 PM MDT
Civil Twilight 5:14 AM MDT 8:23 PM MDT
Nautical Twilight 4:37 AM MDT 9:00 PM MDT
Astronomical Twilight 3:56 AM MDT 9:41 PM MDT
Moon 11:06 AM MDT (5/5) 12:38 AM MDT (5/5)
Length of Visible Light 15h 09m
Length of Day
14h 08m
Waxing Crescent, 37% of the Moon is Illuminated
May 5
Waxing Crescent
May 6
First Quarter
May 14
Full
May 21
Last Quarter
May 28
New

Hourly Weather History & Observations

Time (MDT) Temp. Windchill Dew Point Humidity Pressure Visibility Wind Dir Wind Speed Gust Speed Precip Events Conditions
12:53 AM 46.9 °F - 39.9 °F 77% 29.78 in 10.0 mi East 12.7 mph - N/A   Clear
1:53 AM 44.1 °F 40.8 °F 39.0 °F 82% 29.78 in 9.0 mi ESE 5.8 mph - N/A   Clear
2:53 AM 45.0 °F 40.6 °F 39.9 °F 82% 29.77 in 8.0 mi SE 8.1 mph - N/A   Clear
3:53 AM 45.0 °F 41.2 °F 39.9 °F 82% 29.76 in 10.0 mi SE 6.9 mph - N/A   Clear
4:53 AM 42.1 °F 37.7 °F 37.9 °F 85% 29.77 in 10.0 mi South 6.9 mph - N/A   Clear
5:53 AM 37.9 °F - 36.0 °F 93% 29.80 in 6.0 mi Calm Calm - N/A   Clear
6:53 AM 44.1 °F 40.1 °F 39.0 °F 82% 29.80 in 7.0 mi WNW 6.9 mph - N/A   Clear
7:53 AM 50.0 °F - 42.1 °F 74% 29.83 in 9.0 mi Calm Calm - N/A   Clear
8:53 AM 57.0 °F - 44.1 °F 62% 29.83 in 10.0 mi SSE 5.8 mph - N/A   Clear
9:53 AM 61.0 °F - 46.0 °F 58% 29.82 in 10.0 mi South 6.9 mph - N/A   Clear
10:53 AM 66.0 °F - 46.0 °F 48% 29.82 in 10.0 mi SE 11.5 mph - N/A   Clear
12:53 PM 73.0 °F - 46.0 °F 38% 29.76 in 10.0 mi SE 13.8 mph - N/A   Clear
1:53 PM 73.0 °F - 44.1 °F 35% 29.74 in 10.0 mi SSE 15.0 mph 23.0 mph N/A   Clear
2:53 PM 79.0 °F - 42.1 °F 27% 29.70 in 10.0 mi SSE 10.4 mph 18.4 mph N/A   Clear
3:53 PM 81.0 °F - 30.0 °F 16% 29.66 in 10.0 mi South 12.7 mph 23.0 mph N/A   Clear
4:53 PM 81.0 °F - 35.1 °F 19% 29.64 in 10.0 mi South 11.5 mph - N/A   Clear
5:53 PM 75.0 °F - 43.0 °F 32% 29.66 in 10.0 mi SE 18.4 mph - N/A   Clear
6:53 PM 73.0 °F - 44.1 °F 35% 29.65 in 10.0 mi SE 23.0 mph 27.6 mph N/A   Clear
7:53 PM 64.9 °F - 43.0 °F 45% 29.66 in 10.0 mi SE 19.6 mph - N/A   Clear
8:53 PM 62.1 °F - 42.1 °F 48% 29.65 in 10.0 mi SE 18.4 mph - N/A   Clear
10:53 PM 57.0 °F - 42.1 °F 57% 29.65 in 10.0 mi SSE 16.1 mph - N/A   Clear
11:53 PM 55.9 °F - 43.0 °F 62% 29.62 in 10.0 mi SSE 15.0 mph - N/A   Clear